Location: Sternwarte Stuttgart
(48.7670°N, 9.1830°E)
Time: 00:53:07
(UTC+02:00)

Daily predictions for brighter satellites

Satellite Brightness Start Highest point End
(mag) Time Altitude Azimuth Time Altitude Azimuth Time Altitude Azimuth
USA 267 4.4 00:10:28 37° NW 00:10:28 37° NW 00:14:08 10° NW
Cosmos 2082 Rocket 4.2 00:10:39 24° NNW 00:10:39 24° NNW 00:14:16 10° NNE
Cosmos 2322 Rocket 4.5 00:19:14 10° NW 00:20:48 18° NW 00:20:48 18° NW
Cosmos 2360 Rocket 4.4 00:28:09 10° NNW 00:29:49 20° NNW 00:29:49 20° NNW
Cosmos 2333 Rocket 4.5 00:53:50 10° NNW 00:55:36 20° NNW 00:55:36 20° NNW
ATLAS 5 CENTAUR R/B 4.5 02:09:08 18° N 02:09:08 18° N 02:12:51 10° NE
Cosmos 2297 Rocket 4.1 02:32:32 25° NE 02:32:32 25° NE 02:34:51 10° NE
CZ-4C R/B 3.8 02:49:43 31° NE 02:49:43 31° NE 02:52:56 10° NE
USA 215 4.0 02:53:38 10° ENE 02:59:45 44° N 03:00:04 44° NNW
SL-16 R/B 3.3 03:21:34 45° N 03:21:34 45° N 03:25:45 10° NNW
Resurs 1-4 Rocket 3.4 03:17:29 10° NNE 03:21:07 37° NE 03:21:07 37° NE
Cosmos 1943 4.4 03:22:11 10° NNW 03:27:34 40° NE 03:32:54 10° ESE
Cosmos 2227 Rocket 3.4 03:32:33 36° N 03:32:33 36° N 03:36:11 10° NNE
Cosmos 2263 Rocket 4.3 03:37:34 17° ESE 03:39:05 19° E 03:42:54 10° ENE
ADEOS Rocket 3.7 03:34:31 10° N 03:39:30 49° NNW 03:39:30 49° NNW
Cosmos 1655 Rocket 4.3 03:36:16 10° N 03:42:34 63° ENE 03:42:52 63° E
Cosmos 2026 Rocket 4.3 03:47:31 10° N 03:52:17 57° NNW 03:52:17 57° NNW
Lacrosse 5 rocket 3.7 03:56:20 20° NNE 03:56:20 20° NNE 03:57:52 10° NE
ATLAS 5 CENTAUR R/B 4.3 03:51:16 10° NNW 03:55:44 24° NNE 04:00:33 10° ENE
CZ-2D R/B 2.6 03:55:34 10° NNE 03:59:37 55° NNE 03:59:37 55° NNE
Gbstr 26 Del rocket 4.3 04:00:00 73° W 04:00:51 84° SSW 04:09:01 10° ESE
IRS-1D 3.9 04:04:10 10° NNE 04:08:37 61° N 04:08:37 61° N
ARIANE 5 R/B 2.9 04:04:26 10° NNE 04:08:38 60° NNE 04:08:38 60° NNE
Cosmos 676 Rocket 4.2 04:10:56 68° E 04:10:56 68° E 04:15:55 10° NNE
Cosmos 2279 Rocket 3.9 04:12:09 72° SSE 04:12:48 81° E 04:19:02 10° N
Cosmos 2297 Rocket 3.4 04:14:20 31° NW 04:14:20 31° NW 04:18:43 10° NNE
Okean 3 4.4 04:16:34 46° NE 04:16:34 46° NE 04:19:56 10° NNE
Cosmos 405 Rocket 4.3 04:20:19 34° NNE 04:20:19 34° NNE 04:22:42 10° NNE
MOS 1 Rocket 4.1 04:15:11 10° N 04:19:21 50° NNW 04:19:21 50° NNW
Cosmos 1570 Rocket 4.5 04:15:22 10° NNW 04:20:37 59° ENE 04:25:51 10° SE
UNKNOWN OBJECT B 4.1 04:22:09 10° NNE 04:24:34 36° NNE 04:24:34 36° NNE
Spot 4 Rocket 4.4 04:22:59 10° N 04:27:13 51° NNW 04:27:13 51° NNW
Cosmos 2208 Rocket 4.4 04:23:42 10° NNW 04:28:59 62° ENE 04:34:11 10° SE
Cosmos 1437 Rocket 3.6 04:28:00 10° N 04:31:50 48° ENE 04:31:57 48° E
CZ-4C R/B 3.2 04:34:54 34° NW 04:35:51 36° NNW 04:41:46 10° NE
Abrixas rocket 4.3 04:43:02 24° ESE 04:43:02 24° ESE 04:44:38 10° E
USA 215 4.0 04:35:51 10° E 04:42:06 50° NNE 04:47:24 15° NW
ASTEX 1 3.8 04:37:24 10° NNE 04:42:18 61° E 04:44:44 29° SSE
Cosmos 1812 3.2 04:43:08 56° NNE 04:43:08 56° NNE 04:46:17 10° NNE
Cosmos 1975 Rocket 3.7 04:42:31 37° SSE 04:43:52 52° E 04:48:09 10° NNE
ADEOS II 2.9 04:39:10 10° NNE 04:44:16 47° E 04:48:05 17° SSE
Meteor 1-27 Rocket 4.2 04:46:25 40° WNW 04:46:25 40° WNW 04:51:13 10° N
Cosmos 407 Rocket 4.0 04:47:24 44° WNW 04:47:24 44° WNW 04:52:27 10° NNE
Cosmos 1500 4.2 04:46:02 10° N 04:48:29 38° N 04:48:29 38° N
Cosmos 1023 Rocket 4.4 04:51:27 62° WSW 04:52:13 74° WNW 04:57:31 10° NNE
SL-24 DEB 4.2 04:54:36 10° N 04:59:27 88° E 05:01:30 35° S
Cosmos 1441 Rocket 4.0 05:02:17 38° NNW 05:02:17 38° NNW 05:05:01 10° N
Resurs 1-4 Rocket 3.1 04:57:42 10° N 05:02:11 30° WNW 05:02:11 30° WNW
SL-16 R/B 4.2 05:06:41 15° WNW 05:06:41 15° WNW 05:08:17 10° NW
Fregat R/B Cluster 11 3.7 05:04:47 66° NW 05:04:47 66° NW 05:08:15 10° NE
Intercosmos 25 Rocket 4.5 05:03:46 10° SSE 05:07:22 37° E 05:10:21 10° NNE
Lacrosse 4 Rocket 4.4 05:07:29 10° N 05:09:56 14° NNE 05:12:20 10° ENE
Cosmos 1943 3.5 05:06:20 10° NW 05:11:39 41° WSW 05:16:54 10° S
Cosmos 1378 Rocket 3.9 05:13:26 44° WNW 05:13:26 44° WNW 05:17:37 10° N
Meteor 1-18 Rocket 4.3 05:10:54 20° SSW 05:15:10 85° W 05:21:09 10° N
Cosmos 2227 Rocket 4.2 05:14:22 12° NW 05:16:11 14° NNW 05:19:04 10° N
Cosmos 1741 Rocket 3.9 05:15:20 31° SSW 05:17:53 84° WNW 05:23:11 10° NNE
Cosmos 1140 Rocket 3.9 05:18:38 38° W 05:19:59 46° WNW 05:25:03 10° NNE
Cosmos 2266 Rocket 4.1 05:13:50 10° NNW 05:20:05 56° W 05:26:19 10° SSW
ADEOS 4.4 05:17:14 10° N 05:21:45 30° WNW 05:22:29 29° WNW
Cosmos 2263 Rocket 2.1 05:19:18 29° SW 05:22:20 80° WNW 05:28:04 10° NNE
Cosmos 468 Rocket 3.9 05:17:37 10° NNW 05:22:58 84° WSW 05:28:17 10° SSE
CZ-2D R/B 4.3 05:19:24 10° N 05:23:02 32° WNW 05:23:02 32° WNW
Cosmos 220 Rocket 3.9 05:23:39 38° SW 05:25:12 73° WNW 05:29:35 10° NNE
Cosmos 1975 2.9 05:24:19 10° NNW 05:28:20 53° W 05:31:02 19° SSW
Atlas Centaur 2 4.2 05:28:48 12° SSW 05:29:50 12° S 05:32:01 10° SSE
Cosmos 1666 2.8 05:27:27 10° N 05:31:14 77° E 05:35:00 10° SSE
PSLV R/B 3.6 05:30:08 10° NNE 05:34:01 80° WNW 05:36:25 21° SSW
Okean O Rocket 1.8 05:29:57 10° NNE 05:34:18 72° ESE 05:38:38 10° S
Lacrosse 5 rocket 3.0 05:32:01 14° NW 05:34:30 24° N 05:37:35 10° ENE
Meteor 1-31 Rocket 4.4 05:32:10 10° NNE 05:35:47 35° E 05:39:21 10° SSE
Landsat 4 4.1 05:32:00 10° SSE 05:35:48 67° ENE 05:39:37 10° N
Cosmos 332 Rocket 3.9 05:32:29 10° NNW 05:37:07 48° WSW 05:41:43 10° S
Cosmos 1850 Rocket 4.1 05:35:22 25° SW 05:38:20 57° WNW 05:43:35 10° NNE
Okean 1 3.5 05:37:34 31° SW 05:39:06 49° WNW 05:43:01 10° N
CZ-2D R/B 3.7 05:37:03 10° NNW 05:40:11 16° NW 05:40:56 16° WNW
Cosmos 1763 Rocket 3.6 05:35:25 10° NNW 05:40:44 82° ENE 05:46:04 10° SSE
Cosmos 1607 4.0 05:36:52 23° SW 05:40:55 71° NW 05:47:21 10° NE
ATLAS 5 CENTAUR R/B 2.9 05:35:45 10° NW 05:41:28 62° NE 05:47:49 10° SE
Cosmos 371 Rocket 3.4 05:36:44 10° NNW 05:41:29 52° WSW 05:46:10 10° S
Cosmos 1743 2.7 05:39:42 10° NNW 05:43:35 61° W 05:47:25 10° S
Cosmos 1244 Rocket 4.5 05:38:27 10° NNW 05:44:48 76° W 05:51:08 10° S
TELKOM 3 4.0 05:45:41 31° S 05:46:04 33° SSE 05:48:04 10° E
ARIANE 5 R/B 4.2 05:44:58 10° NNW 05:47:59 16° NW 05:48:57 15° WNW
CZ-2C R/B 3.9 05:46:05 10° SSE 05:50:48 84° ENE 05:55:37 10° NNW
ATLAS 3B R/B 3.1 05:45:55 10° SSW 05:53:14 68° SE 06:00:15 10° NE
Meteor 1-13 Rocket 4.4 05:47:38 10° S 05:53:36 85° E 05:59:33 10° NNE
Meteor 1-4 Rocket 2.5 05:51:36 10° NNW 05:55:01 51° W 05:58:23 10° S
Meteor PRIRODA 3.9 05:52:40 10° NNE 05:56:22 72° E 06:00:04 10° S
CZ-4B R/B 3.1 05:53:21 10° NNE 05:58:40 88° WNW 06:04:00 10° SSW
ATLAS CENTAUR R/B 4.1 05:57:05 10° SE 05:59:06 14° ESE 06:01:05 10° E
COSMO-SKYMED 1 3.9 05:55:06 10° SE 05:59:13 43° ENE 06:03:20 10° N
Cosmos 2297 Rocket 4.5 05:58:57 10° NNW 05:59:42 10° NNW 06:00:25 10° NNW
CZ-4B R/B 3.2 05:56:52 10° N 06:00:51 46° WNW 06:04:22 12° SW
MTI 3.9 06:01:26 10° SSE 06:04:41 82° ENE 06:07:59 10° NNW
Meteor 1-28 Rocket 3.5 06:02:04 10° SSE 06:05:46 70° ENE 06:09:33 10° N
Cosmos 1437 Rocket 4.4 06:05:18 10° NW 06:07:16 16° W 06:07:16 16° W
PSLV R/B 3.9 06:04:15 10° N 06:08:14 42° WNW 06:12:11 10° SW
GEOS 3 Rocket 3.7 06:03:28 10° SE 06:08:41 84° NE 06:14:02 10° NW
Meteor 2-4 Rocket 3.8 06:04:22 10° S 06:09:59 86° E 06:15:48 10° NNE
SL-8 R/B 3.8 06:07:02 17° WSW 06:10:47 76° SSE 06:15:35 10° E
Abrixas rocket 2.1 06:15:36 16° W 06:18:04 84° S 06:21:19 10° E
Meteor 1-19 Rocket 4.3 06:12:22 10° SSW 06:18:10 63° WNW 06:23:55 10° N
CZ-4B R/B 3.8 06:15:42 10° N 06:19:35 79° WNW 06:23:37 10° SSW
SJ-6F 4.5 06:15:59 10° NNE 06:20:11 86° ESE 06:24:20 10° SSW
Meteor 2-9 Rocket 4.2 06:16:51 10° NNW 06:22:08 56° W 06:27:32 10° S
TSX-5 3.7 06:18:25 10° NNW 06:22:29 77° ENE 06:25:50 10° SE
Cosmos 1455 Rocket 4.1 06:19:44 10° NW 06:23:12 24° W 06:26:39 10° SW
ADEOS II 3.0 06:19:18 10° N 06:23:47 29° WNW 06:28:14 10° WSW
Cosmos 304 Rocket 3.8 06:19:54 10° NNW 06:24:39 59° WSW 06:29:23 10° S
IRS-1C Rocket 4.2 06:19:35 10° N 06:24:48 60° WNW 06:29:59 10° SSW
USA 215 3.3 06:18:19 10° SE 06:24:53 87° SSW 06:31:28 10° NW
CZ-4C R/B 4.2 06:21:36 10° NW 06:26:18 22° N 06:31:33 10° NE
Cosmos 1814 Rocket 4.5 06:23:14 10° NW 06:27:55 36° WSW 06:32:38 10° SSW
Cosmos 1745 Rocket 4.1 06:26:09 10° NNW 06:32:26 62° W 06:38:39 10° S
COSMOS 2406 3.4 06:27:29 10° NW 06:33:04 52° WSW 06:38:39 10° S
CZ-2C R/B 4.5 06:30:57 10° NNE 06:35:02 31° E 06:39:11 10° SSE
Cosmos 1271 Rocket 2.7 06:31:12 10° NNW 06:35:11 69° W 06:39:10 10° S
Okean-O 2.7 06:34:38 10° NNE 06:39:06 85° ESE 06:43:33 10° SSW
CZ-3 R/B 4.0 06:30:03 10° SW 06:39:58 19° SSW 06:44:48 10° SSE
Cosmos 2278 Rocket 3.6 06:36:15 10° S 06:41:33 43° ESE 06:46:54 10° NE
NOSS 3-2 (A) 4.1 06:35:38 10° SSW 06:41:34 62° SE 06:48:09 10° NE
Cosmos 1553 Rocket 4.1 06:36:35 10° SSW 06:42:33 54° WNW 06:48:32 10° N
